Terminal Aerodrome Forecast
Issued by NWS Sterling, VA

Current Version | Previous Version | Graphics & Text | Print | Product List | Glossary On
Versions: 1 2 3 4 5 6 7 8 9 10 11 12 13 14 15 16 17 18 19 20 21 22 23 24 25 26 27 28 29
000
FTUS41 KLWX 301746
TAFDCA
TAF
KDCA 301746Z 3018/0118 20004KT 6SM -TSRA SCT060CB BKN100
     FM301900 18005KT P6SM BKN040 OVC070
     FM010300 06011KT 6SM -SHRA OVC050
     FM010900 05013G20KT 6SM -RA OVC015
     FM011200 04013KT P6SM OVC050=

USA.gov is the U.S. government's official web portal to all federal, state and local government web resources and services.